GW3840 Weather Reports


time (UTC)temp
C
wind
direction
speed
KPH
gust
KPH
rain 1hr
cm
rain 24hr
cm
rain mn
cm
humidity
%
barometer
mb
20240723045323 21 136 1.6 3.2 0.00 0.00 0.00 86 1016.9
20240723044821 20 119 1.6 3.2 0.00 0.00 0.00 87 1016.9
20240723044320 21 130 0.0 1.6 0.00 0.00 0.00 87 1017.2
20240723043820 21 116 0.0 1.6 0.00 0.00 0.00 87 1016.8
20240723043319 21 130 0.0 1.6 0.00 0.00 0.00 87 1016.7
20240723042818 21 122 3.2 3.2 0.00 0.00 0.00 87 1016.8
20240723042316 21 115 1.6 3.2 0.00 0.00 0.00 87 1017.0
20240723041813 21 113 0.0 0.0 0.00 0.00 0.00 88 1016.6
20240723041311 21 138 0.0 1.6 0.00 0.00 0.00 88 1016.5
20240723040808 20 139 0.0 0.0 0.00 0.00 0.00 88 1016.6
20240723040306 20 121 0.0 0.0 0.00 0.00 0.00 90 1016.5
20240723035805 20 155 0.0 0.0 0.00 0.00 0.00 91 1016.6
20240723035306 20 138 0.0 0.0 0.00 0.00 0.00 91 1016.7
20240723034803 20 131 0.0 0.0 0.00 0.00 0.00 90 1016.8
20240723034301 20 121 0.0 0.0 0.00 0.00 0.00 89 1016.7
20240723033759 21 128 0.0 0.0 0.00 0.00 0.00 88 1016.7
20240723033259 21 127 0.0 0.0 0.00 0.00 0.00 87 1016.8
20240723032756 21 124 0.0 0.0 0.00 0.00 0.00 86 1016.6
20240723032254 21 123 0.0 0.0 0.00 0.00 0.00 85 1016.6
20240723031753 22 110 0.0 1.6 0.00 0.00 0.00 85 1016.6
20240723031253 21 83 1.6 4.8 0.00 0.00 0.00 85 1016.4
20240723030750 21 105 1.6 3.2 0.00 0.00 0.00 87 1016.5
20240723030250 21 98 0.0 1.6 0.00 0.00 0.00 88 1016.7
20240723025749 21 115 0.0 0.0 0.00 0.00 0.00 87 1016.3
20240723025248 22 136 0.0 0.0 0.00 0.00 0.00 86 1016.4
20240723024747 22 124 0.0 1.6 0.00 0.00 0.00 85 1016.5
20240723024246 22 122 0.0 1.6 0.00 0.00 0.00 85 1016.7
20240723023745 22 132 0.0 0.0 0.00 0.00 0.00 85 1016.6
20240723023245 22 121 0.0 0.0 0.00 0.00 0.00 84 1016.6
20240723022744 22 122 0.0 0.0 0.00 0.00 0.00 84 1016.6
20240723022242 22 122 0.0 1.6 0.00 0.00 0.00 84 1016.5
20240723021741 22 152 0.0 0.0 0.00 0.00 0.00 84 1016.6
20240723021239 23 141 0.0 0.0 0.00 0.00 0.00 83 1016.6
20240723020737 23 122 0.0 0.0 0.00 0.00 0.00 81 1016.6
20240723020236 23 145 0.0 0.0 0.00 0.00 0.00 81 1016.5
20240723015735 23 170 0.0 0.0 0.00 0.00 0.00 79 1016.5
20240723015234 23 64 0.0 1.6 0.00 0.00 0.00 78 1016.6
20240723014733 23 120 0.0 3.2 0.00 0.00 0.00 77 1016.7
20240723014232 23 80 0.0 0.0 0.00 0.00 0.00 78 1016.6
20240723013730 23 191 0.0 0.0 0.00 0.00 0.00 77 1016.5
20240723013229 24 183 0.0 0.0 0.00 0.00 0.00 78 1016.9
20240723012728 24 274 1.6 1.6 0.00 0.00 0.00 75 1016.6
20240723012227 24 184 0.0 0.0 0.00 0.00 0.00 75 1016.6
20240723011726 24 175 1.6 1.6 0.00 0.00 0.00 75 1016.8
20240723011224 24 295 0.0 3.2 0.00 0.00 0.00 74 1016.6
20240723010722 25 267 1.6 3.2 0.00 0.00 0.00 74 1016.6
20240723010221 25 351 1.6 3.2 0.00 0.00 0.00 73 1016.7
20240723005720 25 16 1.6 1.6 0.00 0.00 0.00 74 1016.7
20240723005218 25 250 1.6 3.2 0.00 0.00 0.00 73 1016.5
20240723004717 25 328 3.2 6.4 0.00 0.00 0.00 72 1016.4
20240723004215 25 289 4.8 4.8 0.00 0.00 0.00 72 1016.5
20240723003714 25 321 3.2 4.8 0.00 0.00 0.00 72 1016.4
20240723003213 25 230 3.2 4.8 0.00 0.00 0.00 72 1016.5
20240723002710 25 68 1.6 6.4 0.00 0.00 0.00 73 1016.3
20240723002208 25 329 3.2 6.4 0.00 0.00 0.00 70 1016.5
20240723001707 25 20 3.2 6.4 0.00 0.00 0.00 69 1016.6
20240723001206 25 320 1.6 4.8 0.00 0.00 0.00 69 1016.4
20240723000704 26 13 6.4 6.4 0.00 0.00 0.00 68 1016.4
20240723000204 26 346 1.6 9.7 0.00 0.00 0.00 68 1016.3
20240722235701 26 42 1.6 3.2 0.00 0.00 0.00 67 1016.3
20240722235201 26 347 1.6 4.8 0.00 0.00 0.00 66 1016.1
20240722234658 26 63 3.2 4.8 0.00 0.00 0.00 65 1016.1
20240722234157 26 1 4.8 6.4 0.00 0.00 0.00 66 1016.0
20240722233655 26 16 4.8 9.7 0.00 0.00 0.00 66 1016.0
20240722233154 26 256 3.2 11.3 0.00 0.00 0.00 65 1016.0
20240722232651 26 331 6.4 9.7 0.00 0.00 0.00 67 1016.1
20240722232151 26 259 3.2 6.4 0.00 0.00 0.00 67 1016.0
20240722231649 26 329 4.8 6.4 0.00 0.00 0.00 64 1016.2
20240722231149 26 344 4.8 9.7 0.00 0.00 0.00 65 1016.0
20240722230646 26 49 1.6 9.7 0.00 0.00 0.00 65 1016.1
20240722230145 26 284 3.2 6.4 0.00 0.00 0.00 66 1016.1
20240722225643 26 307 3.2 9.7 0.00 0.00 0.00 65 1016.2
20240722225142 26 276 6.4 12.9 0.00 0.00 0.00 64 1016.0
20240722224639 26 347 4.8 12.9 0.00 0.00 0.00 65 1016.0
20240722224138 26 290 6.4 9.7 0.00 0.00 0.00 62 1015.9
20240722223636 27 347 8.0 9.7 0.00 0.00 0.00 63 1016.0
20240722223135 26 45 1.6 6.4 0.00 0.00 0.00 65 1016.1
20240722222635 26 345 3.2 11.3 0.00 0.00 0.00 66 1016.3
20240722222134 26 327 4.8 9.7 0.00 0.00 0.00 62 1016.0
20240722221633 26 293 6.4 11.3 0.00 0.00 0.00 62 1016.1
20240722221132 26 254 3.2 12.9 0.00 0.00 0.00 66 1016.0
20240722220630 27 338 4.8 9.7 0.00 0.00 0.00 62 1016.1
20240722220129 27 316 8.0 11.3 0.00 0.00 0.00 60 1016.2
20240722215627 27 337 6.4 11.3 0.00 0.00 0.00 60 1016.3
20240722215125 27 320 3.2 9.7 0.00 0.00 0.00 63 1016.2
20240722214625 27 328 4.8 16.1 0.00 0.00 0.00 62 1016.1
20240722214123 27 339 6.4 9.7 0.00 0.00 0.00 64 1016.3
20240722213621 27 277 6.4 6.4 0.00 0.00 0.00 68 1016.2
20240722213120 27 286 4.8 6.4 0.00 0.00 0.00 71 1016.4
20240722212619 26 313 3.2 9.7 0.00 0.00 0.00 67 1016.5
20240722212118 27 336 4.8 6.4 0.00 0.00 0.00 67 1016.3
20240722211616 27 341 3.2 11.3 0.00 0.00 0.00 67 1016.4
20240722211115 27 349 3.2 11.3 0.00 0.00 0.00 67 1016.5
20240722210613 26 296 1.6 4.8 0.00 0.00 0.00 65 1016.5
20240722210113 26 6 4.8 12.9 0.00 0.00 0.00 69 1016.4
20240722205606 26 319 1.6 6.4 0.00 0.00 0.00 72 1016.5
20240722205104 26 307 4.8 9.7 0.00 0.00 0.00 69 1016.7
20240722204602 26 330 6.4 11.3 0.00 0.00 0.00 72 1016.7
20240722204101 26 359 6.4 12.9 0.00 0.00 0.00 72 1016.5
20240722203559 26 284 6.4 6.4 0.00 0.00 0.00 72 1016.7
20240722203059 26 278 4.8 11.3 0.00 0.00 0.00 71 1016.9
20240722202554 26 273 9.7 11.3 0.00 0.00 0.00 74 1016.8
20240722202054 26 328 9.7 12.9 0.00 0.00 0.00 69 1016.8
20240722201553 27 349 4.8 9.7 0.00 0.00 0.00 71 1016.8
20240722201051 26 313 4.8 9.7 0.00 0.00 0.00 74 1016.8
20240722200549 27 257 4.8 9.7 0.00 0.00 0.00 71 1016.9
20240722200048 27 224 6.4 12.9 0.00 0.00 0.00 72 1016.8
20240722195547 26 20 6.4 11.3 0.00 0.00 0.00 72 1016.9
20240722195047 26 307 8.0 11.3 0.00 0.00 0.00 75 1017.2
20240722194545 26 322 4.8 9.7 0.00 0.00 0.00 73 1017.0
20240722194043 26 317 8.0 11.3 0.00 0.00 0.00 71 1017.2
20240722193542 26 285 8.0 11.3 0.00 0.00 0.00 73 1017.1
20240722193041 26 329 8.0 12.9 0.00 0.00 0.00 72 1017.0
20240722192539 26 336 4.8 11.3 0.00 0.00 0.00 71 1017.2
20240722192038 26 298 3.2 9.7 0.00 0.00 0.00 71 1017.4
20240722191537 26 350 6.4 11.3 0.00 0.00 0.00 69 1017.4
20240722191036 27 332 6.4 9.7 0.00 0.00 0.00 70 1017.2
20240722190536 26 279 6.4 12.9 0.00 0.00 0.00 71 1017.2
20240722190034 26 249 6.4 9.7 0.00 0.00 0.00 73 1017.2
20240722185533 26 241 4.8 11.3 0.00 0.00 0.00 72 1017.4
20240722185029 26 257 6.4 11.3 0.00 0.00 0.00 69 1017.5
20240722184525 26 301 6.4 9.7 0.00 0.00 0.00 71 1017.5
20240722184023 26 330 4.8 6.4 0.00 0.00 0.00 71 1017.6
20240722183521 26 237 8.0 9.7 0.00 0.00 0.00 71 1017.7
20240722183019 26 291 1.6 3.2 0.00 0.00 0.00 75 1017.7
20240722182517 26 334 6.4 11.3 0.00 0.00 0.00 69 1017.5
20240722182016 26 331 3.2 6.4 0.00 0.00 0.00 77 1017.7
20240722181514 27 344 6.4 11.3 0.00 0.00 0.00 74 1017.7
20240722181014 27 277 4.8 4.8 0.00 0.00 0.00 71 1017.5
20240722180512 26 322 6.4 11.3 0.00 0.00 0.00 73 1017.5
20240722180010 26 303 4.8 6.4 0.00 0.00 0.00 72 1017.7
20240722175506 26 273 6.4 9.7 0.00 0.00 0.00 75 1017.7
20240722175003 26 261 3.2 9.7 0.00 0.00 0.00 77 1017.7
20240722174500 26 273 4.8 6.4 0.00 0.00 0.00 75 1018.0
20240722173959 26 258 6.4 9.7 0.00 0.00 0.00 76 1018.0
20240722173457 26 233 4.8 9.7 0.00 0.00 0.00 77 1017.8
20240722172956 25 254 4.8 6.4 0.00 0.00 0.00 83 1017.8
20240722172455 25 326 3.2 4.8 0.00 0.00 0.00 81 1018.0
20240722171954 25 298 6.4 9.7 0.00 0.00 0.00 81 1018.0
20240722171454 25 281 3.2 6.4 0.00 0.00 0.00 83 1018.0
20240722170953 25 338 6.4 9.7 0.00 0.00 0.00 82 1017.8
20240722170450 25 319 6.4 11.3 0.00 0.00 0.00 81 1017.7
20240722165946 25 259 4.8 9.7 0.00 0.00 0.00 83 1017.9
20240722165445 25 357 3.2 4.8 0.00 0.00 0.00 80 1018.1
20240722164943 25 340 4.8 9.7 0.00 0.00 0.00 79 1018.0
20240722164442 25 308 4.8 4.8 0.00 0.00 0.00 81 1018.2
20240722163940 26 241 1.6 9.7 0.00 0.00 0.00 80 1018.2
20240722163436 25 326 3.2 6.4 0.00 0.00 0.00 78 1018.0
20240722162935 25 12 4.8 6.4 0.00 0.00 0.00 79 1018.0
20240722162433 25 323 3.2 9.7 0.00 0.00 0.00 80 1018.0
20240722161932 25 256 6.4 6.4 0.00 0.00 0.00 80 1018.2
20240722161430 25 258 6.4 9.7 0.00 0.00 0.00 83 1018.3
20240722160929 25 290 3.2 9.7 0.00 0.00 0.00 81 1018.2
20240722160428 25 312 4.8 11.3 0.00 0.00 0.00 81 1018.2
20240722155926 25 353 4.8 6.4 0.00 0.00 0.00 82 1018.0
20240722155425 25 289 3.2 4.8 0.00 0.00 0.00 84 1018.0
20240722154923 24 359 3.2 3.2 0.00 0.00 0.00 83 1018.2
20240722154423 25 251 4.8 4.8 0.00 0.00 0.00 80 1018.3
20240722153923 24 268 4.8 6.4 0.00 0.00 0.00 82 1018.1
20240722153421 25 231 4.8 4.8 0.00 0.00 0.00 81 1018.1
20240722152920 24 187 0.0 3.2 0.00 0.00 0.00 81 1018.1
20240722152419 24 176 3.2 6.4 0.00 0.00 0.00 81 1017.9
20240722151918 23 254 4.8 6.4 0.00 0.00 0.00 83 1018.1
20240722151417 23 220 4.8 9.7 0.00 0.00 0.00 84 1018.2
20240722150915 23 314 3.2 4.8 0.00 0.00 0.00 83 1018.1
20240722150414 23 214 4.8 6.4 0.00 0.00 0.00 83 1017.8
20240722145913 23 197 4.8 4.8 0.00 0.00 0.00 84 1018.0
20240722145413 23 239 4.8 6.4 0.00 0.00 0.00 87 1018.0
20240722144911 23 238 6.4 9.7 0.00 0.00 0.00 86 1018.1
20240722144409 23 213 3.2 6.4 0.00 0.00 0.00 85 1017.9
20240722143907 23 175 0.0 4.8 0.00 0.00 0.00 87 1018.1
20240722143405 22 228 3.2 6.4 0.00 0.00 0.00 86 1018.1
20240722142903 22 221 6.4 6.4 0.00 0.00 0.00 87 1018.4
20240722142401 23 243 3.2 3.2 0.00 0.00 0.00 86 1018.3
20240722141859 22 251 6.4 6.4 0.00 0.00 0.00 87 1018.5
20240722141358 22 313 3.2 3.2 0.00 0.00 0.00 89 1018.5
20240722140858 22 243 1.6 4.8 0.00 0.00 0.00 89 1018.6
20240722140356 22 253 1.6 4.8 0.00 0.00 0.00 91 1018.5
20240722135855 22 241 6.4 6.4 0.00 0.00 0.00 89 1018.5
20240722135353 22 280 1.6 6.4 0.00 0.00 0.00 90 1018.5
20240722134853 22 251 1.6 3.2 0.00 0.00 0.00 92 1018.4
20240722134351 21 216 1.6 6.4 0.00 0.00 0.00 91 1018.5
20240722133851 21 236 1.6 3.2 0.00 0.00 0.00 92 1018.7
20240722133349 21 238 3.2 6.4 0.00 0.00 0.00 91 1018.5
20240722132848 21 238 1.6 3.2 0.00 0.00 0.00 93 1018.6
20240722132348 21 248 1.6 4.8 0.00 0.00 0.00 93 1018.6
20240722131848 21 251 6.4 6.4 0.00 0.00 0.00 91 1018.7
20240722131346 21 280 1.6 3.2 0.00 0.00 0.00 93 1018.3
20240722130845 21 306 3.2 3.2 0.00 0.00 0.00 94 1018.5
20240722130345 21 275 3.2 4.8 0.00 0.00 0.00 94 1018.5
20240722125843 21 275 3.2 4.8 0.00 0.00 0.00 94 1018.7
20240722125341 20 291 3.2 3.2 0.00 0.00 0.00 95 1018.7
20240722124839 20 235 1.6 4.8 0.00 0.00 0.00 95 1018.5
20240722124337 20 195 0.0 6.4 0.00 0.00 0.00 95 1018.6
20240722123835 20 283 0.0 4.8 0.00 0.00 0.00 96 1018.7
20240722123333 20 218 3.2 4.8 0.00 0.00 0.00 96 1018.8
20240722122832 20 245 3.2 3.2 0.00 0.00 0.00 96 1018.8
20240722122331 20 238 1.6 3.2 0.00 0.00 0.00 96 1018.6
20240722121827 20 258 4.8 6.4 0.00 0.00 0.00 96 1018.7
20240722121326 20 246 1.6 4.8 0.00 0.00 0.00 96 1018.8
20240722120825 20 261 1.6 4.8 0.00 0.00 0.00 96 1018.8
20240722120322 20 254 3.2 3.2 0.00 0.00 0.00 97 1018.6
20240722115820 20 258 0.0 1.6 0.00 0.00 0.00 97 1018.6
20240722115319 20 294 1.6 3.2 0.00 0.00 0.00 97 1018.8
20240722114817 19 205 0.0 1.6 0.00 0.00 0.00 97 1018.6
20240722114313 19 284 1.6 3.2 0.00 0.00 0.00 97 1018.8
20240722113811 19 255 1.6 3.2 0.00 0.00 0.00 97 1018.8
20240722113309 19 304 3.2 4.8 0.00 0.00 0.00 98 1018.8
20240722112808 19 285 0.0 1.6 0.00 0.00 0.00 98 1018.5
20240722112308 19 245 3.2 3.2 0.00 0.00 0.00 98 1018.7
20240722111806 19 218 1.6 3.2 0.00 0.00 0.00 98 1018.5
20240722111303 19 150 0.0 1.6 0.00 0.00 0.00 98 1018.6
20240722110801 19 196 1.6 1.6 0.00 0.00 0.00 98 1018.4
20240722110300 19 235 1.6 1.6 0.00 0.00 0.00 98 1018.5
20240722105800 19 208 1.6 3.2 0.00 0.00 0.00 98 1018.6
20240722105258 19 145 0.0 3.2 0.00 0.00 0.00 98 1018.7
20240722104758 19 173 0.0 3.2 0.00 0.00 0.00 98 1018.7
20240722104258 19 223 0.0 4.8 0.00 0.00 0.00 98 1018.5
20240722103758 19 267 4.8 4.8 0.00 0.00 0.00 99 1018.8
20240722103256 19 133 0.0 0.0 0.00 0.00 0.00 99 1018.8
20240722102755 19 180 0.0 3.2 0.00 0.00 0.00 99 1018.9
20240722102253 19 202 0.0 0.0 0.00 0.00 0.00 99 1018.9
20240722101753 19 169 0.0 0.0 0.00 0.00 0.00 98 1018.9
20240722101251 19 211 0.0 1.6 0.00 0.00 0.00 98 1018.8
20240722100750 19 163 0.0 3.2 0.00 0.00 0.00 98 1019.0
20240722100249 19 202 1.6 3.2 0.00 0.00 0.00 98 1018.9
20240722095748 19 241 3.2 3.2 0.00 0.00 0.00 98 1018.9
20240722095247 19 197 0.0 0.0 0.00 0.00 0.00 98 1018.6
20240722094746 19 250 3.2 3.2 0.00 0.00 0.00 99 1018.8
20240722094245 19 126 0.0 0.0 0.00 0.00 0.00 99 1018.7
20240722093745 19 177 0.0 1.6 0.00 0.00 0.00 98 1018.7
20240722093244 19 174 0.0 4.8 0.00 0.00 0.00 99 1018.7
20240722092743 19 173 0.0 1.6 0.00 0.00 0.00 99 1019.1
20240722092241 19 174 0.0 0.0 0.00 0.00 0.00 99 1019.0
20240722091738 18 97 0.0 0.0 0.00 0.00 0.00 99 1019.0
20240722091237 18 126 0.0 0.0 0.00 0.00 0.00 99 1019.2
20240722090735 18 135 0.0 0.0 0.00 0.00 0.00 99 1019.2
20240722090234 18 141 0.0 0.0 0.00 0.00 0.00 98 1019.3
20240722085733 18 195 0.0 0.0 0.00 0.00 0.00 98 1019.2
20240722085232 18 195 0.0 1.6 0.00 0.00 0.00 98 1019.3
20240722084730 18 151 0.0 0.0 0.00 0.00 0.00 98 1019.5
20240722084230 18 155 0.0 1.6 0.00 0.00 0.00 97 1019.5
20240722083727 18 160 0.0 0.0 0.00 0.00 0.00 97 1019.6
20240722083226 19 144 0.0 0.0 0.00 0.00 0.00 97 1019.5
20240722082721 18 163 0.0 4.8 0.00 0.00 0.00 97 1019.4
20240722082221 19 144 0.0 0.0 0.00 0.00 0.00 97 1019.4
20240722081719 19 158 0.0 1.6 0.00 0.00 0.00 97 1019.5
20240722081218 19 192 0.0 1.6 0.00 0.00 0.00 97 1019.3
20240722080719 19 157 0.0 1.6 0.00 0.00 0.00 97 1019.3
20240722080217 19 154 0.0 1.6 0.00 0.00 0.00 97 1019.6
20240722075716 19 150 0.0 0.0 0.00 0.00 0.00 97 1019.5
20240722075216 19 220 1.6 3.2 0.00 0.00 0.00 97 1019.4
20240722074714 19 171 0.0 1.6 0.00 0.00 0.00 97 1019.5
20240722074212 19 130 1.6 1.6 0.00 0.00 0.00 98 1019.5
20240722073709 19 150 0.0 1.6 0.00 0.00 0.00 98 1019.4
20240722073207 19 156 0.0 1.6 0.00 0.00 0.00 98 1019.5
20240722072706 19 153 0.0 1.6 0.00 0.00 0.00 98 1019.6
20240722072203 19 156 0.0 1.6 0.00 0.00 0.00 99 1019.5
20240722071701 19 173 0.0 3.2 0.00 0.00 0.00 99 1019.6
20240722071159 19 157 0.0 3.2 0.00 0.00 0.00 99 1019.7
20240722070656 19 191 1.6 3.2 0.00 0.00 0.00 99 1019.9
20240722070154 19 148 0.0 0.0 0.00 0.00 0.00 99 1019.7
20240722065653 19 165 0.0 0.0 0.00 0.00 0.00 99 1019.9
20240722065153 19 150 0.0 0.0 0.00 0.00 0.00 99 1019.9
20240722064652 19 150 0.0 1.6 0.00 0.00 0.00 99 1020.0
20240722064150 19 145 1.6 1.6 0.00 0.00 0.00 99 1020.1
20240722063650 19 178 0.0 1.6 0.00 0.00 0.00 99 1020.3
20240722063148 19 224 1.6 3.2 0.00 0.00 0.00 99 1020.2
20240722062646 20 192 0.0 3.2 0.00 0.00 0.00 99 1020.1
20240722062145 20 128 0.0 0.0 0.00 0.00 0.00 99 1020.4
20240722061644 20 157 0.0 1.6 0.00 0.00 0.00 99 1020.2
20240722061143 19 162 1.6 3.2 0.00 0.00 0.00 99 1020.4
20240722060641 19 164 0.0 1.6 0.00 0.00 0.00 99 1020.5
20240722060140 19 181 0.0 0.0 0.00 0.00 0.00 99 1020.6
20240722055638 18 135 0.0 0.0 0.00 0.00 0.00 99 1020.4
20240722055137 18 134 0.0 0.0 0.00 0.00 0.00 99 1020.7
20240722054635 19 134 0.0 0.0 0.00 0.00 0.00 99 1020.6
20240722054134 19 143 0.0 0.0 0.00 0.00 0.00 99 1020.8
20240722053632 19 152 0.0 0.0 0.00 0.00 0.00 99 1020.9
20240722053131 19 132 0.0 0.0 0.00 0.00 0.00 99 1020.6
20240722052628 19 126 0.0 0.0 0.00 0.00 0.00 99 1020.7
20240722052126 19 156 0.0 0.0 0.00 0.00 0.00 99 1020.5
20240722051625 18 146 0.0 0.0 0.00 0.00 0.00 99 1020.4
20240722051123 18 141 0.0 0.0 0.00 0.00 0.00 99 1020.5
20240722050622 18 145 0.0 0.0 0.00 0.00 0.00 99 1020.3
20240722050122 18 140 0.0 0.0 0.00 0.00 0.00 99 1020.4